THORAD AGENA D DEB, 4968

Orbit data source: Space-Track

THORAD AGENA D DEB, 4968 is space debris in SSO originally from a launch on Wed, 08 Apr 1970 UTC launched from the Air Force Western Test Range (AFWTR). Debris objects in space refer to the collection of defunct objects orbiting the Earth. Examples of debris include non-operational satellites, rocket bodies, and fragments generated from explosions, collisions, or faulty payload assembly.

Loading next visibility...
Identifier
4968, 1970-025GN
Orbit
SSO
Country
Flag of USUS
Related business
Manufacturer
Unknown
Mission
Spacecraft
Bus & Motor
Unknown
Mass
Unknown
Launch date (UTC)
1970-04-08 (56 years ago)
Launch vehicle
Unknown
Launch site
Air Force Western Test Range (AFWTR)
Object type
Payload
Rocket body
Debris
Shape & HBR
Unknown shape, 0.1 m
Radar Cross Section
Small (<0.1 m²)

Expand to show TLE details & history
Last TLE update: 1 day ago

TLE from 1 day ago
0 THORAD AGENA D DEB
1 04968U 70025GN  26125.49864072  .00000188  00000-0  30305-3 0  9998
2 04968 100.1796 134.0007 0020621 128.0531  24.7609 13.62712080778593
Epoch: 2026-05-05T11:58Z
TLE epoch observation values (Epoch: 2026-05-05T11:58:02.558Z)
Latitude
26.6636°
Longitude
-83.73622°
Altitude
1,015.124 km
Speed
7.353 km/s
True Right ascension
21h 16m 35s
True Declination
26° 31' 51"
Sunlit
Object was in daylight at epoch
Visualization orbit readout
Latitude
Unknown
Longitude
Unknown
Altitude
Unknown
Speed
Unknown
Apparent Right ascension
Unknown
Apparent Declination
Unknown
Sunlit
N/A
Visualization observer readout
Local Sidereal Time
21:02:18
Azimuth
Unknown
Elevation
Unknown
Doppler factor
Unknown
Orbital elements
Apogee altitude
1,038.424 km
Perigee altitude
1,007.9 km
Semi-major axis
7,401.299 km
Eccentricity
0.00206
Inclination
100.1796°
RAAN
134.0007°
Arg. of periapsis
128.0531°
True anomaly
24.8601°
Mean anomaly
24.7609°
Eccentric anomaly
24.81048°
Mean motion
3.40864 °/min
Orbital period
105.61 mins
BSTAR
0.00030305

Documentation

Showing up to 5 results
|